Погода в Корзово

Россия / Смоленская область     54°11′42″N   32°07′56″E
темп.,
°C
ветер,
м/с
пор.,
м/с
влажн.,
%
обл.,
%
осадки,
мм/ч
давл.,
гПа
погр.,
м
22 апреля, чт
чт2200:00+4ю498618 0.0 1010173
03:00+4ю38945 0.0 1011161
06:00+3ююз389655 0.0 1011145
09:00+9ююз577587 0.0 1012365
12:00+13ююз68605 0.6 10121194
15:00+14ююз785332 1.8 10111800
18:00+14ююз58596 0.8 10101074
21:00+9ююз498368 1.5 1011173
23 апреля, пт
пт2300:00+8ю51190100 0.3 1010319
03:00+7з5888100 1.4 1011509
06:00+4з5890100 3.0 1012588
09:00+6юз5879100 3.9 1013823
12:00+9юз7105398 0.1 10132079
15:00+9зюз6746100 0.1 10131921
18:00+8з5758100 0.1 10121440
21:00+4зюз34747 0.1 101377
24 апреля, сб
сб2400:00+2з37825 0.0 1012167
03:00+1з35895 0.0 1012118
06:00+1зюз259138 0.0 1011164
09:00+2зюз359498 1.0 1011395
12:00+2зсз4697100 1.4 1012388
15:00+5зсз886087 2.3 10121533
18:00+4з6971100 0.2 10121077
21:00+2зюз4118179 0.4 1013327
25 апреля, вс
вс2500:000зюз410885 0.0 1013259
03:000зюз51190100 0.2 1013412
06:00−2зюз511905 0.1 1013372
09:00+1з797593 0.1 1013996
12:00+2з7973100 0.1 10141238
15:00+3зюз696299 0.2 10141434
18:00+4зюз696192 0.1 10131371
21:00+1юз4108182 0.1 1014206
26 апреля, пн
пн2600:00−1юз4108643 0.0 1014196
03:00−1юз3891100 0.0 1013185
06:00−1юз379099 0.0 1013221
09:00+3зюз467029 0.0 1012811
12:00+6зюз5754100 0.6 10121716
15:00+6з5651100 0.9 10111652
18:00+6зсз565516 0.8 10101620
21:00+1з347795 0.9 101160